Wilkerson Pass, CO

3:34 AM MST on December 16, 2017 (GMT -0700)
Wilkerson Pass

Weather History for K4BM - July, 2012

Change the Weather History Date:

Tuesday, July 24, 2012

  Actual Average (KAFF) Record (KAFF)
Temperature  
Mean Temperature 60 °F -  
Max Temperature 69 °F 80 °F 96 °F (2003)
Min Temperature 51 °F 53 °F 39 °F (2006)
Degree Days  
Heating Degree Days 5    
Growing Degree Days 10 (Base 50)    
Moisture  
Dew Point 34 °F    
Average Humidity 37    
Maximum Humidity 54    
Minimum Humidity 25    
Precipitation  
Precipitation 0.00 in - - ()
Sea Level Pressure  
Sea Level Pressure 30.54 in    
Wind  
Wind Speed 3 mph (SSE)    
Max Wind Speed 8 mph    
Max Gust Speed -    
Visibility 10 miles    
Events Rain , Thunderstorm    
Averages and records for this station are not official NWS values.
T = Trace of Precipitation, MM = Missing Value Source: NWS Daily Summary

Daily Weather History Graph

Daily Weather History Graph

Search for Another Location

Airport or City:

Trip Planner

Search our weather history database for the weather conditions in past years. The results will help you decide how hot, cold, wet, or windy it might be!

Date:

Astronomy

Jul. 24, 2012 Rise Set
Actual Time 5:56 AM MDT 8:20 PM MDT
Civil Twilight 5:25 AM MDT 8:50 PM MDT
Nautical Twilight 4:48 AM MDT 9:28 PM MDT
Astronomical Twilight 4:06 AM MDT 10:09 PM MDT
Moon 11:53 AM MDT (7/24) 11:14 PM MDT (7/24)
Length of Visible Light 15h 25m
Length of Day
14h 24m
Waxing Crescent, 32% of the Moon is Illuminated
Jul 24
Waxing Crescent
Jul 26
First Quarter
Aug 1
Full
Aug 9
Last Quarter
Aug 17
New

Hourly Weather History & Observations

Time (MDT) Temp. Dew Point Humidity Pressure Visibility Wind Dir Wind Speed Gust Speed Precip Events Conditions
6:53 AM 51.8 °F 35.6 °F 54% 30.60 in 10.0 mi West 5.8 mph - N/A   Clear
7:13 AM 53.6 °F 35.6 °F 51% 30.60 in 10.0 mi West 4.6 mph - N/A   Clear
7:33 AM 53.6 °F 33.8 °F 47% 30.60 in 10.0 mi Calm Calm - N/A   Clear
7:53 AM 55.4 °F 33.8 °F 44% 30.60 in 10.0 mi Calm Calm - N/A   Clear
8:13 AM 57.2 °F 33.8 °F 41% 30.60 in 10.0 mi Calm Calm - N/A   Clear
8:33 AM 59.0 °F 33.8 °F 39% 30.60 in 10.0 mi Calm Calm - N/A   Clear
8:53 AM 60.8 °F 35.6 °F 39% 30.60 in 10.0 mi Calm Calm - N/A   Clear
9:13 AM 60.8 °F 35.6 °F 39% 30.60 in 10.0 mi Calm Calm - N/A   Clear
9:33 AM 60.8 °F 37.4 °F 42% 30.60 in 10.0 mi Calm Calm - N/A   Clear
9:53 AM 62.6 °F 33.8 °F 34% 30.60 in 10.0 mi Calm Calm - N/A   Clear
10:13 AM 60.8 °F 37.4 °F 42% 30.59 in 10.0 mi Calm Calm - N/A   Scattered Clouds
10:33 AM 62.6 °F 35.6 °F 37% 30.59 in 10.0 mi Calm Calm - N/A   Scattered Clouds
10:53 AM 62.6 °F 33.8 °F 34% 30.59 in 10.0 mi Calm Calm - N/A   Scattered Clouds
11:13 AM 66.2 °F 33.8 °F 30% 30.59 in 10.0 mi South 5.8 mph - N/A   Scattered Clouds
11:33 AM 62.6 °F 33.8 °F 34% 30.58 in 10.0 mi SW 3.5 mph - N/A   Scattered Clouds
11:53 AM 64.4 °F 33.8 °F 32% 30.58 in 10.0 mi Calm Calm - N/A   Scattered Clouds
12:13 PM 64.4 °F 32.0 °F 30% 30.58 in 10.0 mi SSW 3.5 mph - N/A   Clear
12:33 PM 69.8 °F 32.0 °F 25% 30.57 in 10.0 mi Calm Calm - N/A   Mostly Cloudy
12:53 PM 66.2 °F 32.0 °F 28% 30.57 in 10.0 mi SSW 3.5 mph - N/A   Mostly Cloudy
1:13 PM 68.0 °F 32.0 °F 26% 30.56 in 10.0 mi South 3.5 mph - N/A   Mostly Cloudy
1:33 PM 68.0 °F 32.0 °F 26% 30.56 in 10.0 mi Calm Calm - N/A   Mostly Cloudy
1:53 PM 64.4 °F 33.8 °F 32% 30.55 in 10.0 mi Calm Calm - N/A   Overcast
2:13 PM 66.2 °F 32.0 °F 28% 30.54 in 10.0 mi SSE 3.5 mph - N/A   Mostly Cloudy
2:33 PM 64.4 °F 32.0 °F 30% 30.54 in 10.0 mi Calm Calm - N/A   Mostly Cloudy
2:53 PM 68.0 °F 33.8 °F 28% 30.53 in 10.0 mi SSW 3.5 mph - N/A   Overcast
3:13 PM 69.8 °F 33.8 °F 27% 30.53 in 10.0 mi Calm Calm - N/A   Overcast
3:33 PM 68.0 °F 32.0 °F 26% 30.53 in 10.0 mi Calm Calm - N/A   Overcast
3:53 PM 64.4 °F 33.8 °F 32% 30.52 in 10.0 mi Calm Calm - N/A   Overcast
4:13 PM 64.4 °F 32.0 °F 30% 30.52 in 10.0 mi NNE 3.5 mph - N/A Thunderstorm Overcast
4:33 PM 66.2 °F 33.8 °F 30% 30.51 in 10.0 mi ENE 4.6 mph - N/A   Mostly Cloudy
4:53 PM 66.2 °F 33.8 °F 30% 30.49 in 10.0 mi ESE 4.6 mph - N/A   Scattered Clouds
5:13 PM 64.4 °F 33.8 °F 32% 30.49 in 10.0 mi Calm Calm - N/A Thunderstorm Mostly Cloudy
5:33 PM 66.2 °F 33.8 °F 30% 30.49 in 10.0 mi SE 3.5 mph - N/A Thunderstorm Mostly Cloudy
5:53 PM 66.2 °F 32.0 °F 28% 30.49 in 10.0 mi South 4.6 mph - N/A   Mostly Cloudy
6:13 PM 64.4 °F 35.6 °F 34% 30.49 in 10.0 mi NE 3.5 mph - N/A   Mostly Cloudy
6:33 PM 62.6 °F 35.6 °F 37% 30.49 in 10.0 mi ENE 8.1 mph - N/A   Mostly Cloudy
6:53 PM 60.8 °F 35.6 °F 39% 30.49 in 10.0 mi NE 6.9 mph - N/A   Scattered Clouds
7:13 PM 60.8 °F 33.8 °F 36% 30.49 in 10.0 mi NW 6.9 mph - N/A Thunderstorm Thunderstorm
7:33 PM 59.0 °F 35.6 °F 42% 30.49 in 10.0 mi SW 3.5 mph - N/A Thunderstorm Overcast
7:53 PM 59.0 °F 35.6 °F 42% 30.49 in 10.0 mi SSE 5.8 mph - N/A Thunderstorm Thunderstorm
8:13 PM 60.8 °F 33.8 °F 36% 30.50 in 10.0 mi East 3.5 mph - N/A Thunderstorm Thunderstorm
8:53 PM 55.4 °F 37.4 °F 51% 30.51 in 10.0 mi NNW 8.1 mph - N/A Rain , Thunderstorm Light Thunderstorms and Rain
9:13 PM 55.4 °F 35.6 °F 47% 30.51 in 10.0 mi North 5.8 mph - N/A   Overcast
9:26 PM 55.4 °F 35.6 °F 47% 30.52 in 10.0 mi NNE 4.6 mph - N/A   Overcast
9:53 PM 57.2 °F 33.8 °F 41% 30.52 in 10.0 mi North 3.5 mph - N/A   Overcast
10:13 PM 57.2 °F 35.6 °F 44% 30.51 in 10.0 mi Calm Calm - N/A   Overcast
10:33 PM 55.4 °F 35.6 °F 47% 30.51 in 10.0 mi SSW 3.5 mph - N/A   Scattered Clouds
10:53 PM 55.4 °F 37.4 °F 51% 30.50 in 10.0 mi South 3.5 mph - N/A Thunderstorm Clear
11:13 PM 55.4 °F 35.6 °F 47% 30.50 in 10.0 mi Calm Calm - N/A   Clear
11:33 PM 55.4 °F 37.4 °F 51% 30.51 in 10.0 mi SE 5.8 mph - N/A   Scattered Clouds
11:53 PM 53.6 °F 37.4 °F 54% 30.51 in 10.0 mi ENE 4.6 mph - N/A   Scattered Clouds